[[{"header":{"parameterUnit":"m.s-1","parameterCategory":1,"la1":30.2991,"la2":30.254,"lo1":-89.0895,"lo2":-89.0444,"dy":0.0017,"dx":0.0017,"nx":28,"ny":28,"refTime":"2024-08-25T03:00:00:Z","depth":0,"parameterNumber":2,"parameterNumberName":"U-component_of_WINDS"},"data":[0,0,0,0,0,0,0,0,0,0,0,0,0,0,0,0,0,0,0,0,0,0,0,0,0,0,0,0,0,0,0,0,0,0,0,0,0,0,0,0,0,0,0,0,0,0,0,0,0,0,0,0,0,0,0,0,0,0,-2.7657,-2.7657,0,-2.7623,-2.7623,-2.7622,-2.7517,-2.7515,-2.7513,-2.7511,-2.7478,-2.748,-2.7481,0,0,0,0,0,0,0,0,0,0,0,0,0,-2.7635,-2.7636,-2.7657,-2.7657,-2.7656,-2.7623,-2.7623,-2.7622,-2.7518,-2.7515,-2.7512,-2.751,-2.7478,-2.7479,-2.7481,0,0,0,0,0,0,0,0,0,0,0,0,0,-2.7628,-2.7637,-2.7657,-2.76,-2.7595,-2.7623,-2.7623,-2.7622,-2.7518,-2.7515,-2.7511,-2.7508,-2.7477,-2.7479,-2.7481,-2.7563,0,0,-2.7487,-2.7488,0,0,0,0,0,0,0,0,-2.7628,-2.7628,-2.7609,-2.7604,-2.7598,-2.7571,-2.7603,-2.7602,-2.7519,-2.7548,-2.7511,-2.7507,-2.7512,-2.7511,-2.7512,-2.7561,-2.756,-2.7487,-2.7489,-2.7489,-2.749,0,0,0,0,0,0,0,-2.7629,-2.7629,-2.7644,-2.7609,-2.7602,-2.7577,-2.7572,-2.7602,-2.755,-2.7545,-2.7537,-2.7534,-2.7509,-2.7511,-2.7511,-2.756,-2.7487,-2.7489,-2.749,-2.7491,-2.7674,-2.7678,0,0,0,0,0,0,-2.7637,-2.763,-2.7645,-2.7643,-2.7605,-2.7581,-2.7575,-2.7583,-2.7549,-2.7541,-2.7537,-2.753,-2.7509,-2.7509,-2.7509,-2.7602,-2.7489,-2.7491,-2.7492,-2.7671,-2.7675,-2.7679,0,0,0,0,0,0,-2.7637,-2.7639,-2.7646,-2.7634,-2.7633,-2.7585,-2.7595,-2.7584,-2.7586,-2.7544,-2.7534,-2.7549,-2.7506,-2.7507,-2.755,-2.76,-2.7492,-2.7494,-2.7666,-2.7672,-2.7677,-2.7789,0,0,0,0,0,0,-2.7637,-2.764,-2.767,-2.7636,-2.7634,-2.7687,-2.7598,-2.7586,-2.759,-2.7579,-2.7552,-2.7544,-2.7504,-2.7548,-2.7552,-2.76,-2.7495,-2.7662,-2.7669,-2.7676,-2.7781,-2.7798,-2.7813,0,0,0,0,0,-2.7636,-2.7703,-2.7672,-2.7674,-2.767,-2.769,-2.7689,-2.764,-2.7594,-2.7624,-2.7597,-2.7545,-2.7594,-2.7553,-2.7557,-2.7607,-2.7658,-2.7667,-2.7675,-2.7774,-2.7795,-2.7812,0,0,0,0,0,0,-2.7744,-2.7697,-2.7662,-2.772,-2.771,-2.7672,-2.7708,-2.7664,-2.7668,-2.7658,-2.7598,-2.7593,-2.7645,-2.763,-2.7586,-2.7684,-2.7618,-2.7627,-2.7691,-2.7711,-2.7726,-2.7728,-2.7497,0,0,0,0,0,-2.7775,-2.7794,-2.7752,-2.7807,-2.7804,-2.7758,-2.7764,-2.7728,-2.7715,-2.771,-2.7686,-2.7677,-2.769,-2.77,-2.771,-2.7779,-2.7772,-2.7815,-2.7831,-2.7844,-2.7853,-2.7888,-2.7907,-2.7707,-2.7707,-2.7706,0,0,-2.7838,-2.7815,-2.783,-2.7828,-2.7816,-2.7838,-2.7754,-2.7781,-2.7797,-2.7715,-2.7754,-2.7736,-2.7722,-2.7779,-2.7803,-2.7768,-2.7907,-2.7855,-2.7866,-2.7867,-2.7899,-2.7918,-2.7935,-2.7712,-2.7711,-2.771,0,0,-2.7963,-2.7948,-2.7991,-2.7981,-2.7964,-2.7933,-2.7944,-2.7913,-2.7898,-2.7937,-2.7876,-2.7895,-2.7919,-2.7911,-2.791,-2.8035,-2.7988,-2.804,-2.8122,-2.8158,-2.8174,-2.8187,-2.8231,-2.8248,-2.8049,-2.805,-2.805,0,-2.8044,-2.8073,-2.802,-2.805,-2.8051,-2.7978,-2.8023,-2.8016,-2.8003,-2.8006,-2.7968,-2.7996,-2.7982,-2.8036,-2.8066,-2.8069,-2.8079,-2.8042,-2.8175,-2.8189,-2.8201,-2.8242,-2.8259,-2.8056,-2.8055,-2.8055,-2.8054,0,-2.8173,-2.8195,-2.8232,-2.8221,-2.8226,-2.8264,-2.8218,-2.823,-2.8194,-2.8167,-2.8208,-2.8188,-2.8193,-2.8203,-2.8168,-2.8253,-2.8232,-2.8186,-2.8117,-2.8227,-2.8265,-2.828,-2.8065,-2.8063,-2.8061,-2.8059,0,0,-2.8363,-2.8323,-2.8338,-2.8332,-2.8308,-2.8324,-2.8359,-2.8363,-2.8374,-2.8369,-2.8397,-2.842,-2.8377,-2.8376,-2.834,-2.8372,-2.8472,-2.8321,-2.832,-2.8349,-2.8563,-2.8597,-2.8616,-2.8441,-2.8444,-2.8446,-2.8564,0,-2.8481,-2.8537,-2.8491,-2.8556,-2.8575,-2.8507,-2.8537,-2.8527,-2.8504,-2.8518,-2.8493,-2.8509,-2.8452,-2.8451,-2.8479,-2.8453,-2.8513,-2.8445,-2.8466,-2.8468,-2.847,-2.8636,-2.8672,-2.8784,-2.8579,-2.8581,-2.8583,0,-2.8626,-2.8626,-2.8693,-2.8665,-2.8671,-2.8699,-2.8699,-2.8714,-2.8701,-2.8682,-2.8682,-2.8638,-2.8672,-2.8606,-2.8651,-2.8606,-2.8612,-2.8602,-2.8605,-2.8604,-2.8531,-2.8638,-2.8819,-2.8835,-2.8606,-2.8604,-2.8602,0,-2.8757,-2.8775,-2.8816,-2.8814,-2.8783,-2.8804,-2.8792,-2.8776,-2.8782,-2.8783,-2.8786,-2.8791,-2.8794,-2.88,-2.8758,-2.8715,-2.8809,-2.874,-2.8795,-2.8796,-2.8816,-2.8815,-2.8999,-2.8823,-2.8823,-2.8823,-2.8822,0,-2.8893,-2.8936,-2.8875,-2.89,-2.8947,-2.8895,-2.8943,-2.8924,-2.8911,-2.8933,-2.8875,-2.8897,-2.8842,-2.8858,-2.8827,-2.8869,-2.8871,-2.8857,-2.8848,-2.8862,-2.8863,-2.8864,-2.8855,-2.8827,-2.8826,-2.8825,-2.8824,0,-2.9047,-2.9007,-2.9048,-2.9016,-2.9009,-2.9045,-2.9017,-2.9041,-2.9014,-2.9042,-2.9046,-2.9005,-2.9022,-2.8982,-2.8993,-2.8971,-2.9032,-2.9011,-2.9036,-2.9029,-2.9085,-2.908,-2.9275,-2.9298,-2.9109,-2.911,-2.9112,0,-2.9135,-2.9166,-2.9138,-2.9147,-2.9139,-2.9156,-2.9161,-2.9112,-2.912,-2.9108,-2.9133,-2.9145,-2.9151,-2.9181,-2.9153,-2.9161,-2.9139,-2.9207,-2.914,-2.9153,-2.9139,-2.9137,-2.914,-2.922,-2.9223,-2.9225,-2.9226,0,-2.9296,-2.9275,-2.9284,-2.9287,-2.9295,-2.9295,-2.9292,-2.9303,-2.9251,-2.9263,-2.9279,-2.9284,-2.9295,-2.9308,-2.931,-2.9299,-2.9254,-2.9248,-2.926,-2.9274,-2.9287,-2.928,-2.9072,-2.9243,-2.9241,-2.924,-2.9239,-2.9239,-2.9419,-2.9444,-2.9427,-2.944,-2.9432,-2.943,-2.945,-2.9426,-2.9438,-2.9442,-2.9413,-2.9436,-2.9423,-2.9421,-2.9415,-2.9433,-2.9402,-2.9421,-2.9425,-2.9431,-2.9439,-2.9285,-2.9433,-2.9433,-2.9432,-2.9432,-2.9431,0,-2.9576,-2.9562,-2.9575,-2.9571,-2.9581,-2.9538,-2.9532,-2.9544,-2.9564,-2.9556,-2.9563,-2.9582,-2.9594,-2.9567,-2.9576,-2.9595,-2.9575,-2.9599,-2.9596,-2.9594,-2.9467,-2.9454,-2.9615,-2.9615,-2.9615,-2.9615,-2.9615,-2.9615,-2.9659,-2.9699,-2.9676,-2.9712,-2.9698,-2.9719,-2.9719,-2.9717,-2.971,-2.9734,-2.9743,-2.9725,-2.971,-2.9717,-2.9727,-2.9719,-2.9724,-2.9755,-2.974,-2.9621,-2.9603,-2.9586,-2.9574,-2.9757,-2.9757,-2.9866,-2.9867,-2.9868]},{"header":{"parameterUnit":"m.s-1","parameterCategory":1,"la1":30.2991,"la2":30.254,"lo1":-89.0895,"lo2":-89.0444,"dy":0.0017,"dx":0.0017,"nx":28,"ny":28,"refTime":"2024-08-25T03:00:00:Z","depth":0,"parameterNumber":3,"parameterNumberName":"V-component_of_WINDS"},"data":[0,0,0,0,0,0,0,0,0,0,0,0,0,0,0,0,0,0,0,0,0,0,0,0,0,0,0,0,0,0,0,0,0,0,0,0,0,0,0,0,0,0,0,0,0,0,0,0,0,0,0,0,0,0,0,0,0,0,2.9944,2.9945,0,2.9997,2.9998,2.9998,3.0029,3.003,3.003,3.003,3.0079,3.008,3.0081,0,0,0,0,0,0,0,0,0,0,0,0,0,2.9867,2.9868,2.9944,2.9945,2.9946,2.9997,2.9998,2.9998,3.0029,3.003,3.003,3.003,3.0079,3.008,3.0081,0,0,0,0,0,0,0,0,0,0,0,0,0,2.9908,2.9868,2.9944,2.9967,2.997,2.9997,2.9998,2.9998,3.0029,3.003,3.003,3.003,3.0078,3.008,3.0082,3.0088,0,0,3.0087,3.0088,0,0,0,0,0,0,0,0,2.9905,2.991,2.9963,2.9966,2.9969,3.0007,2.9988,3.0028,3.0029,3.0007,3.003,3.003,3.0055,3.0058,3.0068,3.009,3.0092,3.0087,3.0088,3.0089,3.009,0,0,0,0,0,0,0,2.9902,2.9908,2.9965,2.9964,2.9967,2.9974,2.998,2.9996,3.0028,3.0009,3.0011,3.0017,3.0056,3.0066,3.0069,3.0093,3.0087,3.0089,3.009,3.009,3.0124,3.0124,0,0,0,0,0,0,2.9896,2.9906,2.9963,2.9967,2.9937,2.9975,2.9982,2.9994,3.0028,3.0034,3.0017,3.0018,3.0063,3.0067,3.0071,3.0081,3.0089,3.0091,3.0092,3.0124,3.0124,3.0123,0,0,0,0,0,0,2.9895,2.9901,2.9961,2.9937,2.9945,2.9976,2.999,2.9995,3.0005,3.0035,3.004,3.0021,3.0063,3.0068,3.0084,3.0083,3.0091,3.0093,3.0124,3.0124,3.0124,3.01,0,0,0,0,0,0,2.9892,2.9901,2.9904,2.9937,2.9946,2.9975,2.999,2.9996,3.0009,3.0011,3.004,3.0045,3.0064,3.0081,3.0086,3.0085,3.0094,3.0124,3.0124,3.0124,3.0101,3.0099,3.0097,0,0,0,0,0,2.9889,2.9894,2.9904,2.9911,2.9952,2.9974,2.998,3.0002,3.0008,3.0012,3.0031,3.0044,3.0082,3.0082,3.0088,3.0088,3.0124,3.0124,3.0124,3.0102,3.0099,3.0097,0,0,0,0,0,0,2.9859,2.9899,2.991,2.9926,2.9947,2.998,2.9985,2.9999,3.0017,3.0018,3.0044,3.005,3.0063,3.0077,3.0077,3.0096,3.0105,3.0105,3.0086,3.0084,3.0082,3.0079,3.0096,0,0,0,0,0,2.9854,2.9871,2.9904,2.9915,2.9925,2.9953,2.9964,2.9979,3.0001,3.001,3.003,3.0049,3.0066,3.0076,3.0092,3.0103,3.011,3.0106,3.0104,3.0102,3.0103,3.0109,3.0108,3.0122,3.0122,3.0122,0,0,2.9844,2.9868,2.9877,2.991,2.9928,2.9943,2.996,2.9975,2.9987,3.0011,3.0028,3.0043,3.0067,3.008,3.0087,3.0092,3.01,3.0102,3.01,3.0101,3.0109,3.0107,3.0106,3.0122,3.0122,3.0122,0,0,2.9834,2.9854,2.9866,2.9884,2.9911,2.993,2.9932,2.9963,2.9975,2.9992,3.0011,3.0024,3.0052,3.0068,3.008,3.0076,3.0089,3.0081,3.0071,3.0077,3.0076,3.0075,3.0074,3.0073,3.0081,3.0081,3.0081,0,2.9818,2.9844,2.9869,2.9884,2.9898,2.9923,2.9934,2.9949,2.998,2.9988,2.9994,3.003,3.0047,3.0064,3.0064,3.0072,3.0075,3.0078,3.0074,3.0074,3.0073,3.0072,3.0072,3.008,3.008,3.008,3.008,0,2.9822,2.9839,2.9845,2.9876,2.989,2.9903,2.9929,2.994,2.9955,2.9973,2.9989,3.0011,3.0033,3.0038,3.0052,3.0058,3.006,3.007,3.0079,3.007,3.007,3.007,3.0078,3.0078,3.0079,3.0079,0,0,2.9794,2.984,2.9841,2.9856,2.9888,2.9901,2.9915,2.9938,2.9947,2.9967,2.9978,3.0002,3.0011,3.0024,3.004,3.0045,3.0041,3.0054,3.0055,3.0051,3.0049,3.0041,3.004,3.005,3.005,3.005,3.0047,0,2.9788,2.9816,2.984,2.9857,2.9873,2.9897,2.9909,2.9929,2.9946,2.9961,2.9979,2.9995,3.0007,3.0015,3.0022,3.004,3.0041,3.0041,3.006,3.006,3.0053,3.004,3.0032,3.0028,3.0047,3.0047,3.0047,0,2.9786,2.9807,2.9827,2.9858,2.9866,2.9876,2.9899,2.9914,2.9937,2.9949,2.9964,2.9981,2.9995,3.0003,3.0023,3.0022,3.0031,3.0041,3.0042,3.0044,3.0053,3.0042,3.0027,3.0026,3.0046,3.0047,3.0047,0,2.9763,2.9796,2.9813,2.9824,2.9861,2.9868,2.9883,2.9907,2.9919,2.9939,2.9947,2.9967,2.9978,2.9993,3.0014,3.0019,3.0032,3.0042,3.0041,3.004,3.0042,3.0042,3.0028,3.0048,3.0048,3.0048,3.0048,0,2.9754,2.9765,2.9803,2.9813,2.9826,2.9853,2.9865,2.9882,2.9903,2.9916,2.9937,2.9949,2.9976,2.9991,3.0007,3.0021,3.0025,3.0035,3.0039,3.0033,3.0031,3.0039,3.0039,3.0048,3.0048,3.0048,3.0048,0,2.9731,2.9757,2.9776,2.981,2.9819,2.9827,2.9855,2.9865,2.9884,2.99,2.9905,2.9933,2.9951,2.9975,2.9999,3.001,3.0022,3.0028,3.0014,3.0017,3.0015,3.0015,3.0006,3.0006,3.0026,3.0025,3.0025,0,2.9723,2.9733,2.9768,2.978,2.9795,2.9812,2.9825,2.9852,2.9864,2.9892,2.9898,2.9918,2.9936,2.9963,2.9985,3.0004,3.0011,3.0007,3.0014,3.0008,3.0011,3.001,3.0011,3.0005,3.0004,3.0004,3.0004,0,2.9708,2.972,2.9739,2.9763,2.9779,2.9798,2.9818,2.9826,2.9856,2.9869,2.9888,2.9902,2.9928,2.9948,2.997,2.9984,2.9999,3.0002,3.0002,2.9996,2.9987,2.9992,3.0009,3.0001,3.0002,3.0002,3.0002,3.0002,2.9692,2.9702,2.9729,2.9749,2.9767,2.9786,2.9797,2.9818,2.9835,2.986,2.9874,2.9893,2.9916,2.9947,2.9961,2.9976,2.9981,2.9982,2.9982,2.9982,2.998,2.9986,2.998,2.998,2.998,2.998,2.998,0,2.9677,2.9696,2.9715,2.9743,2.9759,2.9774,2.9797,2.9808,2.9826,2.9846,2.9864,2.9886,2.9905,2.9929,2.9949,2.9956,2.9963,2.9961,2.996,2.9963,2.9974,2.9971,2.9954,2.9954,2.9954,2.9954,2.9954,2.9954,2.9672,2.9689,2.9705,2.9731,2.9749,2.9769,2.9781,2.9798,2.9815,2.984,2.9856,2.9872,2.9894,2.9916,2.9934,2.9941,2.9947,2.9942,2.995,2.996,2.9962,2.9964,2.9962,2.9943,2.9943,2.9938,2.9938,2.9938]}]]